Regional Weather Roundup
Issued by NWS

Home | Current Version | Previous Version | Graphics & Text | Print | Product List | Glossary On
Versions: 1 2 3 4 5 6 7 8 9 10 11 12 13 14 15 16 17 18 19 20 21 22 23 24 25 26 27 28 29 30 31 32 33 34 35 36 37 38 39 40 41 42 43 44 45 46 47 48 49 50
000
ASUS43 KFSD 242102
RWRSD

WEATHER ROUNDUP FOR SOUTH DAKOTA
NATIONAL WEATHER SERVICE SIOUX FALLS SD
400 PM CDT SUN MAY 24 2015

NOTE: "FAIR" INDICATES FEW OR NO CLOUDS BELOW 12,000 FEET WITH NO
SIGNIFICANT WEATHER AND/OR OBSTRUCTIONS TO VISIBILITY.


SDZ001>005-009-010-012>017-242200-
NORTHWEST AND NORTH CENTRAL SOUTH DAKOTA

CITY           SKY/WX    TMP DP  RH WIND       PRES   REMARKS
FAITH            N/A     56  52  86 S9        29.91S
MOBRIDGE       CLOUDY    70  50  49 E15       29.88F
$$

SDZ012>016-024>037-041>051-057-063-072>074-242200-
SOUTHWEST AND SOUTH CENTRAL SOUTH DAKOTA

CITY           SKY/WX    TMP DP  RH WIND       PRES   REMARKS
RAPID CTY ARPT LGT RAIN  54  53  97 E14       29.88F
PIERRE         CLOUDY    62  56  80 E14       29.85F
CUSTER         LGT RAIN  51  45  79 E9        29.91F
ELLSWORTH AFB  LGT RAIN  54  54 100 E15       29.88  FOG
PHILIP         RAIN      58  57  97 E13       29.86S FOG
PINE RIDGE     PTSUNNY   65  56  72 NE12      29.82F
WINNER         CLOUDY    61  57  87 E7        29.85F
$$

SDZ004>011-016>023-039-040-242200-
NORTHEAST SOUTH DAKOTA

CITY           SKY/WX    TMP DP  RH WIND       PRES   REMARKS
ABERDEEN       CLOUDY    66  54  65 E14       29.89F
WATERTOWN      LGT RAIN  60  57  89 E12       29.88F FOG
BROOKINGS      CLOUDY    59  57  94 E12       29.87F
$$

SDZ017-020-022-023-036>040-048>070-242200-
SOUTHEAST SOUTH DAKOTA

CITY           SKY/WX    TMP DP  RH WIND       PRES   REMARKS
SIOUX FALLS    LGT RAIN  62  60  93 E6        29.82F
HURON          CLOUDY    62  58  86 E15       29.84F
CHAMBERLAIN    CLOUDY    60  57  91 E6        29.85S
MITCHELL       CLOUDY    64  61  90 E12       29.83F
YANKTON        CLOUDY    63  59  88 E3        29.80F
$$

ABBREVIATIONS USED IN REMARKS
   TC - TEMPERATURE IN CELSIUS
  WCI - WIND CHILL INDEX
   HX - HEAT INDEX
  VSB - VISIBILITY



USA.gov is the U.S. government's official web portal to all federal, state and local government web resources and services.